Simultaneous Nadir Overpasses (SNOs) Predictions

Prediction of SNOs between FY3D and METOP-C Satellite Orbit:

Table of predicted SNOs for the next 14.0 days since TLE Epoch: 6/3/2023
Index Date (FY3D) Time (FY3D) Lat,Lon (FY3D) SZA (FY3D ) Date (METOP-C) Time (METOP-C) Lat,Lon (METOP-C) SZA (METOP-C ) Distance(km) Time Diff (sec)
1 06/11/2023 14:46:23 -75.43, 133.33 127.68 06/11/2023 14:47:29 -75.39, 136.30 127.78 83.43 66
2 06/11/2023 15:37:03 75.15, -58.51 52.02 06/11/2023 15:38:14 75.12, -57.17 51.96 38.58 71
3 06/11/2023 16:27:46 -75.03, 109.16 128.11 06/11/2023 16:28:59 -74.99, 109.78 128.18 18.52 73
4 06/11/2023 17:18:29 74.89, -83.12 51.74 06/11/2023 17:19:40 74.90, -83.12 51.74 0.88 71
5 06/11/2023 18:09:15 -74.91, 84.13 128.25 06/11/2023 18:10:22 -74.91, 84.24 128.25 3.18 67
6 06/11/2023 19:00:00 74.87,-108.44 51.71 06/11/2023 19:01:02 74.88,-108.53 51.71 2.92 62
7 06/11/2023 19:50:46 -74.89, 58.82 128.28 06/11/2023 19:51:44 -74.89, 58.83 128.28 0.38 58
8 06/11/2023 20:41:32 74.89,-133.88 51.73 06/11/2023 20:42:23 74.90,-133.81 51.73 2.40 51
9 06/11/2023 21:32:17 -74.87, 33.51 128.31 06/11/2023 21:33:06 -74.87, 33.42 128.31 2.41 49
10 06/11/2023 22:23:03 74.87,-159.19 51.70 06/11/2023 22:23:45 74.88,-159.21 51.70 0.99 42
11 06/11/2023 23:13:49 -74.89, 8.06 128.29 06/11/2023 23:14:27 -74.89, 8.15 128.29 2.63 38
12 06/12/2023 00:04:34 74.84, 175.50 51.67 06/12/2023 00:05:07 74.85, 175.38 51.68 3.49 33
13 06/12/2023 00:55:20 -74.87, -17.25 128.32 06/12/2023 00:55:49 -74.87, -17.26 128.32 0.16 29
14 06/12/2023 01:46:06 74.87, 150.05 51.69 06/12/2023 01:46:28 74.87, 150.10 51.69 1.79 22
15 06/12/2023 02:36:51 -74.84, -42.56 128.35 06/12/2023 02:37:11 -74.84, -42.67 128.35 2.95 20
16 06/12/2023 03:27:37 74.84, 124.74 51.66 06/12/2023 03:27:50 74.85, 124.70 51.67 1.38 13
17 06/12/2023 04:18:23 -74.86, -68.01 128.33 06/12/2023 04:18:32 -74.86, -67.94 128.33 2.09 9
18 06/12/2023 05:09:09 74.87, 99.29 51.68 06/12/2023 05:09:11 74.87, 99.42 51.68 3.91 2
19 06/12/2023 05:59:54 -74.84, -93.32 128.35 06/12/2023 05:59:54 -74.84, -93.35 128.35 0.69 0
20 06/12/2023 06:50:40 74.84, 73.98 51.65 06/12/2023 06:50:33 74.85, 74.01 51.66 1.21 7
21 06/12/2023 07:41:25 -74.82,-118.63 128.38 06/12/2023 07:41:16 -74.82,-118.75 128.38 3.47 9
22 06/12/2023 08:32:11 74.82, 48.67 51.62 06/12/2023 08:31:55 74.82, 48.61 51.63 1.88 16
23 06/12/2023 09:22:57 -74.84,-144.08 128.36 06/12/2023 09:22:37 -74.84,-144.03 128.36 1.56 20
24 06/12/2023 10:13:43 74.84, 23.22 51.64 06/12/2023 10:13:16 74.85, 23.33 51.65 3.30 27
25 06/12/2023 11:04:28 -74.82,-169.39 128.39 06/12/2023 11:03:59 -74.82,-169.43 128.39 1.22 29
26 06/12/2023 11:55:14 74.82, -2.09 51.61 06/12/2023 11:54:38 74.82, -2.08 51.62 0.68 36
27 06/12/2023 12:46:00 -74.84, 165.16 128.37 06/12/2023 12:45:20 -74.84, 165.29 128.37 3.81 40
28 06/12/2023 13:36:45 74.79, -27.40 51.58 06/12/2023 13:36:00 74.80, -27.48 51.59 2.42 45
29 06/12/2023 14:27:31 -74.81, 139.85 128.40 06/12/2023 14:26:42 -74.81, 139.88 128.40 1.04 49
30 06/12/2023 15:18:17 74.82, -52.85 51.60 06/12/2023 15:17:21 74.82, -52.76 51.61 2.69 56
31 06/12/2023 16:09:02 -74.79, 114.54 128.43 06/12/2023 16:08:04 -74.79, 114.48 128.43 1.73 58
32 06/12/2023 16:59:48 74.79, -78.16 51.57 06/12/2023 16:58:43 74.80, -78.17 51.58 0.43 65
33 06/12/2023 17:50:34 -74.81, 89.09 128.41 06/12/2023 17:49:25 -74.81, 89.20 128.41 3.30 69
34 06/12/2023 18:41:19 74.77,-103.47 51.54 06/12/2023 18:40:05 74.77,-103.57 51.55 2.97 74
35 06/12/2023 19:32:03 -74.69, 64.05 128.54 06/12/2023 19:30:49 -74.69, 63.53 128.53 15.06 74
36 06/12/2023 20:22:43 74.41,-127.86 51.16 06/12/2023 20:21:34 74.41,-129.89 51.20 60.57 69
37 06/12/2023 21:13:26 -74.29, 39.77 128.97 06/12/2023 21:12:19 -74.28, 37.11 128.92 80.20 67



Historial Predications of SNOs between FY3D and METOP-C
